Weather in Nizhniye Kigi

Russia / Republic of Bashkortostan     55°32′39″N   58°29′45″E
temp.,
°C
wind,
m/s
gust,
m/s
humid.,
%
clouds,
%
prec.,
mm/h
press.,
hPa
HPBL,
m
25 february, thu
thu2523:00−23n5128992 0.0 1025423
02:00−28nnw23941 0.0 102720
05:00−31wnw11981 0.0 103019
08:00−32wsw111004 0.0 103119
11:00−26sw22922 0.0 1031196
14:00−21sw238567 0.0 1030319
17:00−19s128634 0.0 1029134
20:00−23s229337 0.0 103020
26 february, fri
fri2623:00−25s129428 0.0 103020
02:00−27sse11960 0.0 102919
05:00−28se11970 0.0 102919
08:00−28ese11920 0.0 102819
11:00−20ese12808 0.0 1026161
14:00−15ese127257 0.0 1024394
17:00−14nw118436 0.0 102346
20:00−19ene12910 0.0 102320
27 february, sat
sat2723:00−21se22900 0.0 102220
02:00−23ese229011 0.0 102020
05:00−24ese229012 0.0 101820
08:00−22ese229082 0.0 101534
11:00−16se488491 0.0 1012284
14:00−12se6993100 1.3 1004339
17:00−10se5893100 1.6 1003318
20:00−11ese4795100 0.4 1002202
28 february, sun
sun2823:00−11se349598 0.6 100197
02:00−9se2396100 0.8 1000119
05:00−8se1296100 1.3 100029
08:00−8ese119798 0.3 100021
11:00−3se129598 1.0 1000210
14:00−1sse1299100 0.7 1001297
17:00−1se1196100 1.1 1003175
20:00−5ene239792 0.3 100558
1 march, mon
mon123:00−9ene239490 0.4 100849
02:00−11ne239594 0.1 100937
05:00−12ne239696 0.4 101161
08:00−14nne229795 0.4 101349
11:00−12n119295 0.6 1015204
14:00−11nnw3391100 0.3 1015307
17:00−11nnw3493100 0.5 1016317
20:00−13nnw2296100 0.3 101729